[[{"header":{"parameterUnit":"m.s-1","parameterCategory":1,"la1":30.2992,"la2":30.254,"lo1":-89.0895,"lo2":-89.0443,"dy":0.0025,"dx":0.0025,"nx":19,"ny":19,"refTime":"2026-05-04T03:00:00:Z","depth":0,"parameterNumber":2,"parameterNumberName":"U-component_of_WINDS"},"data":[0,0,0,0.9049,0.9048,0.8987,0.8987,0.893,0.893,0,0,0,0,0,0,0,0,0,0,0,0.908,0.908,0.9049,0.9048,0.8988,0.8987,0.893,0.893,0,0,0,0,0,0,0,0,0,0,0,0.908,0.908,0.908,0.9048,0.8988,0.8987,0.893,0.8969,0,0,0,0,0,0,0,0,0,0,0.9023,0.9066,0.908,0.908,0.9047,0.8988,0.8987,0.897,0.8966,0.8967,0,0.8971,0,0.895,0.8928,0.8927,0,0,0,0.9038,0.9069,0.9041,0.908,0.9047,0.8988,0.9012,0.8968,0.8963,0.8962,0.897,0.8968,0.8949,0.8927,0.8927,0.8963,0.8963,0,0,0.9041,0.9076,0.9044,0.9038,0.905,0.9014,0.901,0.8965,0.8976,0.897,0.8966,0.8948,0.8927,0.8927,0.8962,0.8963,0,0,0,0.9057,0.9079,0.9051,0.9041,0.9029,0.9012,0.9008,0.8978,0.8966,0.8965,0.8947,0.8927,0.8926,0.8961,0.8962,0.9027,0,0,0,0.9059,0.9089,0.9053,0.9074,0.903,0.9003,0.9023,0.8969,0.8963,0.8948,0.8927,0.8926,0.8961,0.8962,0.9024,0.9052,0,0,0,0.9079,0.9091,0.9087,0.9076,0.9052,0.9003,0.8988,0.8967,0.8953,0.8927,0.8926,0.896,0.8962,0.9021,0.9047,0.907,0,0,0,0.9111,0.9147,0.9088,0.912,0.9052,0.9044,0.8988,0.898,0.8966,0.8927,0.8961,0.8962,0.902,0.9043,0.9067,0.9095,0.911,0,0,0.9175,0.9155,0.9171,0.9117,0.9128,0.905,0.907,0.9024,0.8989,0.8973,0.8974,0.9025,0.9046,0.9069,0.9185,0.9198,0,0,0,0.9203,0.9215,0.921,0.9198,0.9163,0.9135,0.9082,0.9064,0.9049,0.8989,0.9039,0.905,0.9062,0.9074,0.9085,0.9091,0.897,0.8969,0.8969,0.9344,0.9297,0.9319,0.9264,0.9253,0.9197,0.9183,0.9149,0.9106,0.9119,0.9114,0.919,0.9205,0.9213,0.9221,0.9125,0.9126,0.9126,0.9126,0.9432,0.944,0.938,0.938,0.9329,0.9328,0.9274,0.9243,0.9234,0.9191,0.9199,0.9155,0.9228,0.9232,0.913,0.913,0.9129,0.9129,0.9128,0.9518,0.9514,0.9491,0.9467,0.9453,0.9396,0.9389,0.9343,0.93,0.9308,0.9296,0.9295,0.9287,0.9306,0.9306,0.9306,0.9307,0.9307,0.9307,0.9616,0.9589,0.9589,0.9553,0.9537,0.9511,0.9453,0.9437,0.9406,0.9373,0.9373,0.9327,0.9244,0.9224,0.9311,0.931,0.931,0.9309,0.9309,0.9721,0.9689,0.969,0.9674,0.9627,0.9615,0.9556,0.9525,0.9505,0.9502,0.9454,0.94,0.9377,0.9368,0.935,0.9465,0.9465,0.9465,0.9465,0.9793,0.9776,0.9764,0.9742,0.9715,0.9662,0.9661,0.9615,0.9563,0.9546,0.9523,0.9496,0.9489,0.9469,0.9458,0.9441,0.9577,0.9577,0.9577,0.9853,0.9832,0.9841,0.9789,0.9748,0.9713,0.971,0.9685,0.9619,0.958,0.9532,0.9527,0.9483,0.9472,0.9432,0.9416,0.9384,0,0]},{"header":{"parameterUnit":"m.s-1","parameterCategory":1,"la1":30.2992,"la2":30.254,"lo1":-89.0895,"lo2":-89.0443,"dy":0.0025,"dx":0.0025,"nx":19,"ny":19,"refTime":"2026-05-04T03:00:00:Z","depth":0,"parameterNumber":3,"parameterNumberName":"V-component_of_WINDS"},"data":[0,0,0,6.2239,6.2241,6.2354,6.2355,6.2498,6.2499,0,0,0,0,0,0,0,0,0,0,0,6.2208,6.2209,6.2239,6.2242,6.2354,6.2355,6.2498,6.2499,0,0,0,0,0,0,0,0,0,0,0,6.2207,6.2209,6.221,6.2242,6.2354,6.2355,6.2498,6.2412,0,0,0,0,0,0,0,0,0,0,6.2302,6.2277,6.2208,6.221,6.2243,6.2354,6.2355,6.2408,6.2417,6.2447,0,6.2478,0,6.2491,6.2509,6.251,0,0,0,6.2239,6.2269,6.2298,6.221,6.2244,6.2354,6.2303,6.2413,6.2424,6.246,6.248,6.2485,6.2493,6.251,6.2511,6.2698,6.2698,0,0,6.2233,6.2229,6.229,6.2305,6.2291,6.2299,6.2306,6.242,6.244,6.248,6.2488,6.2496,6.2511,6.2512,6.2697,6.2698,0,0,0,6.2217,6.2225,6.225,6.2299,6.2319,6.2303,6.2311,6.2435,6.2443,6.249,6.2497,6.2512,6.2514,6.2696,6.2697,6.2742,0,0,0,6.2213,6.2215,6.2248,6.2247,6.2317,6.2379,6.2323,6.2436,6.2448,6.2497,6.2512,6.2515,6.2695,6.2696,6.2739,6.2764,0,0,0,6.22,6.2214,6.2231,6.2246,6.2295,6.2377,6.2393,6.2438,6.2453,6.251,6.2516,6.2694,6.2696,6.2736,6.2759,6.2811,0,0,0,6.2184,6.227,6.2232,6.233,6.2294,6.2406,6.2392,6.2475,6.2529,6.2513,6.2695,6.2697,6.2735,6.2755,6.2807,6.2853,6.2873,0,0,6.229,6.2283,6.2341,6.231,6.2428,6.2389,6.2512,6.2564,6.2572,6.2654,6.2659,6.274,6.2758,6.281,6.2983,6.2999,0,0,0,6.2373,6.2415,6.2447,6.2499,6.2542,6.2579,6.2613,6.2632,6.2702,6.2615,6.2773,6.2784,6.2815,6.2837,6.285,6.2875,6.2707,6.2707,6.2707,6.2517,6.2524,6.2619,6.2639,6.2689,6.2722,6.2762,6.2793,6.2784,6.2821,6.2846,6.295,6.2976,6.2986,6.3012,6.2871,6.2871,6.2872,6.2872,6.2672,6.2731,6.2717,6.2805,6.281,6.2882,6.2916,6.2907,6.2974,6.2933,6.296,6.2914,6.3003,6.3026,6.2875,6.2875,6.2874,6.2874,6.2874,6.2767,6.2796,6.2818,6.2892,6.2948,6.2963,6.3028,6.303,6.3031,6.3058,6.3083,6.3082,6.308,6.307,6.307,6.3071,6.3071,6.3071,6.3072,6.2856,6.2879,6.2935,6.2986,6.3018,6.306,6.3093,6.3124,6.3158,6.3154,6.3154,6.314,6.3011,6.2978,6.3077,6.3076,6.3075,6.3075,6.3075,6.3009,6.2974,6.3059,6.3092,6.315,6.3204,6.3205,6.3267,6.3293,6.3324,6.3304,6.3209,6.32,6.319,6.3162,6.3304,6.3304,6.3304,6.3304,6.3088,6.3084,6.317,6.3221,6.3271,6.3281,6.3373,6.3398,6.3417,6.3433,6.3413,6.3376,6.3366,6.3364,6.335,6.3324,6.3503,6.3503,6.3503,6.3181,6.3182,6.3262,6.3283,6.3328,6.3365,6.3451,6.3508,6.3523,6.3511,6.3444,6.3436,6.3377,6.3359,6.3345,6.3323,6.3276,0,0]}]]